Location: Castillon
(43.0896°N, 0.2156°E)
Time: 03:01:23
(UTC+00:00)

Cosmos 1992 Rocket - Pass Details

Date: 16 June 2021
Orbit: 758 x 766 km, 74.0° (Epoch: 04 August)

Event Time Altitude Azimuth Distance (km) Brightness Sun altitude
Exits shadow 22:32:33 41° 134° (SE) 1,089 4.3 -20.5°
Maximum altitude 22:33:29 46° 104° (ESE) 1,018 4.4 -20.6°
Drops below altitude 10° 22:38:27 10° 32° (NNE) 2,305 7.0 -20.9°
Sets 22:40:54 0° 26° (NNE) 3,237 7.9 -21.1°
